#timestamp,LO_Frequency,Hit,StdDev 
1650513615.3,286046996.0,N
1650513635.2,286046994.4,Y
1650513655.9,286046999.4,P
1650513675.7,286046999.3,N
1650513695.6,286047000.2,N
1650513715.4,286047002.1,N
1650513735.2,286047001.4,N
1650513755.1,286047003.8,N
1650513756.0,286047003.8,N
1650513775.8,286047003.0,N
1650513795.7,286046999.8,N
1650513815.5,286047000.4,N
1650513835.3,286047000.1,N
1650513855.2,286047002.3,N
1650513875.0,286047001.7,N
1650513875.9,286047001.7,N
1650513895.7,286047001.3,N
1650513915.6,286047002.3,N
1650513935.4,286046998.5,N
1650513955.3,286046998.1,N
1650513975.1,286047002.4,N
1650513995.8,286047003.0,N
1650514015.7,286047005.4,N
1650514035.5,286047003.9,N
1650514055.4,286047003.6,N
1650514075.2,286047005.9,N
1650514095.0,286047003.2,N
1650514095.9,286047003.2,N
1650514115.8,286047002.9,N
1650514135.6,286047005.4,N
1650514155.5,286047002.4,N
1650514175.3,286047001.0,N
1650514195.1,286047004.3,N
1650514215.9,286047001.5,N
1650514235.7,286047004.1,N
1650514255.5,286047004.2,N
1650514275.4,286047005.8,Y
1650514295.2,286047001.7,P
1650514315.1,286047001.0,N
1650514316.0,286047001.0,N
1650514335.8,286047002.5,Y
1650514355.6,286047000.5,P
1650514375.5,286047001.6,N
1650514395.3,286047001.4,N
1650514415.2,286047004.1,Y
1650514435.9,286047001.4,P
1650514455.7,286047003.8,P
1650514475.6,286047003.4,N
1650514495.4,286047003.8,Y
1650514515.2,286047001.4,P
1650514535.1,286047001.7,P
1650514536.0,286047001.7,P
1650514555.8,286047005.5,Y
1650514575.7,286047004.0,P
1650514595.5,286047004.3,P
1650514615.3,286047003.5,P
1650514635.2,286047004.6,Y
1650514655.0,286047001.8,P
1650514655.9,286047001.8,N
1650514675.8,286047001.9,N
1650514695.6,286047001.1,N
1650514715.4,286047000.1,N
1650514735.3,286047000.6,N
1650514755.1,286047002.5,N
1650514775.9,286047004.0,Y
1650514795.7,286047002.3,P
1650514815.5,286047002.4,P
1650514835.4,286047000.0,N
1650514855.2,286047000.7,N
1650514875.0,286046999.9,N
1650514875.9,286046999.9,N
1650514895.8,286047002.1,N
1650514915.6,286047002.2,N
1650514935.5,286047002.2,N
1650514955.3,286047000.2,N
1650514975.1,286047000.3,N
1650514995.9,286047000.9,N
1650515015.7,286047002.4,N
1650515035.6,286047001.5,N
1650515055.4,286047003.0,Y
1650515075.2,286047001.4,P
1650515095.1,286047003.7,P
1650515096.0,286047003.7,P
1650515115.8,286047003.8,Y
1650515135.6,286047000.5,P
1650515155.5,286046998.1,N
1650515175.3,286046998.6,N
1650515195.2,286047001.1,N
1650515215.9,286047000.8,N
1650515235.7,286047002.6,N
1650515255.6,286047000.3,N
1650515275.4,286047000.6,N
1650515295.2,286046998.6,N
1650515315.1,286046999.8,N
1650515316.0,286046999.8,N
1650515335.8,286047001.7,N
1650515355.7,286047000.3,N
1650515375.5,286047000.2,N
1650515395.3,286047000.4,N
1650515415.2,286047002.8,N
1650515435.0,286047000.2,N
1650515435.9,286047000.2,N
1650515455.8,286047002.7,N
1650515475.6,286046996.8,N
1650515495.4,286046995.8,N
1650515515.3,286046996.1,N
1650515535.1,286046993.6,Y
1650515555.8,286046996.2,P
1650515575.7,286046996.5,N
1650515595.5,286047000.6,N
1650515615.4,286047000.1,N
1650515635.2,286046999.7,N
1650515655.0,286047001.4,N
1650515655.9,286047001.4,N
1650515675.8,286047001.4,N
1650515695.6,286047001.4,N
1650515715.5,286047007.2,Y
1650515735.3,286047006.8,P
1650515755.1,286047008.5,N
1650515775.9,286047011.5,P
1650515795.7,286047013.0,Y
1650515815.5,286047006.1,P
1650515835.4,286047006.1,P
1650515855.2,286047008.2,P
1650515875.1,286047006.5,Y
1650515876.0,286047006.5,P
1650515895.8,286047001.3,P
1650515915.6,286047005.7,N
1650515935.5,286047001.6,N
1650515955.3,286047001.3,N
1650515975.2,286047002.2,N
1650515995.9,286046998.9,N
1650516015.7,286046998.3,N
1650516035.6,286046999.0,N
1650516055.4,286046999.0,N
1650516075.2,286046996.7,N
1650516095.1,286047001.0,N
1650516096.0,286047001.0,N
1650516115.8,286046999.8,N
1650516135.7,286046998.5,N
1650516155.5,286046999.6,N
1650516175.3,286046999.2,N
1650516195.2,286046997.4,N
1650516215.9,286046995.8,N
1650516235.7,286046993.4,N
1650516255.6,286046994.1,N
1650516275.4,286046994.7,N
1650516295.3,286046991.7,N
1650516315.1,286046988.7,Y
1650516316.0,286046988.7,P
1650516335.8,286046989.6,N
1650516355.7,286046989.0,N
1650516375.5,286046991.2,N
1650516395.3,286046989.7,N
1650516415.2,286046988.8,Y
1650516435.0,286047001.1,P
1650516435.9,286047001.1,N
1650516455.8,286046998.6,N
1650516475.6,286046998.3,N
1650516495.4,286046999.1,N
1650516515.3,286046999.1,N
1650516535.1,286047011.9,Y
1650516555.8,286046999.7,P
1650516575.7,286047002.1,P
1650516595.5,286047002.1,N
1650516615.4,286046999.8,N
1650516635.2,286047001.1,N
1650516655.0,286047000.4,N
1650516655.9,286047000.4,N
1650516675.8,286047002.8,N
1650516695.6,286047004.1,Y
1650516715.5,286047000.2,P
1650516735.3,286046998.5,P
1650516755.1,286047001.1,N
1650516775.9,286046998.5,N
1650516795.7,286046998.5,N
1650516815.5,286046999.5,N
1650516835.4,286046999.3,N
1650516855.2,286046999.6,N
1650516875.1,286046997.1,Y
1650516876.0,286046997.1,P
1650516895.8,286046997.0,N
1650516915.7,286046997.9,N
1650516935.5,286046995.0,Y
1650516955.3,286046999.0,P
1650516975.2,286046999.3,N
1650516995.0,286047001.0,N
1650516995.9,286047001.0,N
1650517015.7,286047000.2,N
1650517035.6,286047002.0,N
1650517055.4,286047002.3,N
1650517075.3,286047003.7,N
1650517095.1,286047002.2,N
1650517096.0,286047002.2,N
1650517115.8,286046997.4,N
1650517135.7,286046996.3,N
1650517155.5,286046993.6,Y
1650517175.3,286046994.2,P
1650517195.2,286046994.2,N
